Weather History for Lynchburg, VA

Change the Weather History Date:

Sunday, November 3, 2013

  Actual Average Record
Temperature  
Mean Temperature 49 °F 51 °F  
Max Temperature 61 °F 63 °F 82 °F (1974)
Min Temperature 37 °F 39 °F 23 °F (1911)
Degree Days  
Heating Degree Days 16 14  
Month to date heating degree days 29 42  
Since 1 July heating degree days 308 389  
Cooling Degree Days 0 0  
Month to date cooling degree days 0 0  
Year to date cooling degree days 1184 1031  
Moisture  
Dew Point 33 °F    
Average Humidity 53    
Maximum Humidity 76    
Minimum Humidity 29    
Precipitation  
Precipitation 0.00 in 0.13 in 1.51 in (1985)
Month to date precipitation 0.02 0.37  
Year to date precipitation 36.56 35.29  
Snow  
Snow 0.00 in - - ()
Month to date snowfall 0.0  
Since 1 July snowfall 0.0  
Since 1 September snowfall 0.0  
Snow Depth 0.00 in    
Sea Level Pressure  
Sea Level Pressure 30.18 in    
Wind  
Wind Speed 3 mph (NW)    
Max Wind Speed 14 mph    
Max Gust Speed 24 mph    
Visibility 10 miles    
Events      
T = Trace of Precipitation, MM = Missing Value Source: NWS Daily Summary

Daily Weather History Graph

Daily Weather History Graph

Search for Another Location

Airport:

Trip Planner

Search our weather history database for the weather conditions in past years. The results will help you decide how hot, cold, wet, or windy it might be!

Date:

Astronomy

Nov. 03, 2013 Rise Set
Actual Time 6:43 AM EST 5:16 PM EST
Civil Twilight 6:16 AM EST 5:43 PM EST
Nautical Twilight 5:45 AM EST 6:14 PM EST
Astronomical Twilight 5:15 AM EST 6:45 PM EST
Moon 6:45 AM EST (11/3) 5:30 PM EST (11/3)
Length of Visible Light 11h 27m
Length of Day
10h 32m
New Moon, 0% of the Moon is Illuminated
Nov 3
New Moon
Nov 10
First Quarter
Nov 17
Full
Nov 25
Last Quarter
Dec 2
New

Hourly Weather History & Observations

Time (EST) Temp. Windchill Dew Point Humidity Pressure Visibility Wind Dir Wind Speed Gust Speed Precip Events Conditions
12:54 AM 46.0 °F - 34.0 °F 63% 29.96 in 10.0 mi Calm Calm - N/A   Clear
1:54 AM 44.1 °F - 35.1 °F 71% 29.98 in 10.0 mi Calm Calm - N/A   Clear
1:54 AM 43.0 °F - 34.0 °F 71% 29.99 in 10.0 mi Calm Calm - N/A   Scattered Clouds
2:54 AM 41.0 °F - 34.0 °F 76% 30.00 in 10.0 mi Calm Calm - N/A   Clear
3:54 AM 44.1 °F - 35.1 °F 71% 30.01 in 10.0 mi Calm Calm - N/A   Clear
4:54 AM 44.1 °F 42.5 °F 34.0 °F 68% 30.04 in 10.0 mi West 3.5 mph - N/A   Clear
5:54 AM 42.1 °F - 34.0 °F 73% 30.07 in 10.0 mi Calm Calm - N/A   Clear
6:54 AM 41.0 °F - 34.0 °F 76% 30.12 in 10.0 mi Calm Calm - N/A   Clear
7:54 AM 45.0 °F 43.5 °F 37.0 °F 74% 30.16 in 10.0 mi SSW 3.5 mph - N/A   Clear
8:54 AM 53.1 °F - 37.0 °F 55% 30.17 in 10.0 mi NNW 9.2 mph - N/A   Clear
9:54 AM 55.0 °F - 35.1 °F 47% 30.19 in 10.0 mi NW 9.2 mph 17.3 mph N/A   Clear
10:54 AM 57.0 °F - 34.0 °F 42% 30.21 in 10.0 mi Variable 5.8 mph 17.3 mph N/A   Clear
11:54 AM 59.0 °F - 32.0 °F 36% 30.21 in 10.0 mi NNW 9.2 mph - N/A   Scattered Clouds
12:54 PM 59.0 °F - 30.9 °F 35% 30.20 in 10.0 mi North 8.1 mph 17.3 mph N/A   Scattered Clouds
1:54 PM 60.1 °F - 28.9 °F 31% 30.21 in 10.0 mi Variable 6.9 mph - N/A   Scattered Clouds
2:54 PM 59.0 °F - 28.9 °F 32% 30.22 in 10.0 mi Variable 6.9 mph - N/A   Clear
3:54 PM 59.0 °F - 28.9 °F 32% 30.23 in 10.0 mi Variable 4.6 mph - N/A   Clear
4:54 PM 55.0 °F - 30.0 °F 38% 30.25 in 10.0 mi NNW 4.6 mph - N/A   Clear
5:54 PM 48.0 °F - 30.9 °F 52% 30.28 in 10.0 mi Calm Calm - N/A   Clear
6:54 PM 43.0 °F 41.3 °F 32.0 °F 65% 30.32 in 10.0 mi NNW 3.5 mph - N/A   Clear
7:54 PM 42.1 °F - 32.0 °F 67% 30.35 in 10.0 mi Calm Calm - N/A   Clear
8:54 PM 39.9 °F - 32.0 °F 73% 30.38 in 10.0 mi Calm Calm - N/A   Clear
9:54 PM 37.9 °F - 28.9 °F 70% 30.40 in 10.0 mi Calm Calm - N/A   Clear
10:54 PM 37.0 °F - 28.9 °F 73% 30.40 in 10.0 mi Calm Calm - N/A   Clear